Time,TemperatureF,DewpointF,PressureIn,WindDirection,WindDirectionDegrees,WindSpeedMPH,WindSpeedGustMPH,Humidity,HourlyPrecipIn,Conditions,Clouds,dailyrainin,SoftwareType,DateUTC
2013-01-22 00:00:00,21.0,21.0,29.87,ENE,67,2.0,7.0,100,0.00,,,0.00,Weather View 32 v70,2013-01-22 05:00:00,
2013-01-22 00:03:00,21.0,21.0,29.87,ENE,67,4.0,5.0,100,0.00,,,0.00,Weather View 32 v70,2013-01-22 05:03:00,
2013-01-22 00:08:00,21.0,21.0,29.87,East,90,0.0,5.0,100,0.00,,,0.00,Weather View 32 v70,2013-01-22 05:08:00,
2013-01-22 00:13:00,21.0,21.0,29.87,East,90,1.0,5.0,100,0.00,,,0.00,Weather View 32 v70,2013-01-22 05:13:00,
2013-01-22 00:18:00,20.0,20.0,29.87,East,90,0.0,5.0,100,0.00,,,0.00,Weather View 32 v70,2013-01-22 05:18:00,
2013-01-22 00:23:00,21.0,21.0,29.87,East,90,0.0,5.0,100,0.00,,,0.00,Weather View 32 v70,2013-01-22 05:23:00,
2013-01-22 00:28:00,21.0,21.0,29.87,East,90,0.0,5.0,100,0.00,,,0.00,Weather View 32 v70,2013-01-22 05:28:00,
2013-01-22 00:33:00,21.0,21.0,29.85,East,90,0.0,5.0,100,0.00,,,0.00,Weather View 32 v70,2013-01-22 05:33:00,
2013-01-22 00:38:00,21.0,21.0,29.85,NNE,22,2.0,5.0,100,0.00,,,0.00,Weather View 32 v70,2013-01-22 05:38:00,
2013-01-22 00:43:00,21.0,21.0,29.84,NNW,337,3.0,5.0,100,0.00,,,0.00,Weather View 32 v70,2013-01-22 05:43:00,
2013-01-22 00:48:00,21.0,21.0,29.84,NW,315,4.0,5.0,100,0.00,,,0.00,Weather View 32 v70,2013-01-22 05:48:00,
2013-01-22 00:53:00,21.0,21.0,29.85,NW,315,4.0,5.0,100,0.00,,,0.00,Weather View 32 v70,2013-01-22 05:53:00,
2013-01-22 00:58:00,21.0,21.0,29.85,NNW,337,3.0,6.0,100,0.00,,,0.00,Weather View 32 v70,2013-01-22 05:58:00,
2013-01-22 01:03:00,21.0,21.0,29.85,NNE,22,1.0,6.0,100,0.00,,,0.00,Weather View 32 v70,2013-01-22 06:03:00,
2013-01-22 01:08:00,21.0,21.0,29.85,NNW,337,3.0,8.0,100,0.00,,,0.00,Weather View 32 v70,2013-01-22 06:08:00,
2013-01-22 01:13:00,21.0,21.0,29.84,NNW,337,6.0,8.0,100,0.00,,,0.00,Weather View 32 v70,2013-01-22 06:13:00,
2013-01-22 01:18:00,21.0,21.0,29.84,NNW,337,4.0,8.0,100,0.00,,,0.00,Weather View 32 v70,2013-01-22 06:18:00,
2013-01-22 01:23:00,21.0,21.0,29.85,NE,45,4.0,8.0,100,0.00,,,0.00,Weather View 32 v70,2013-01-22 06:23:00,
2013-01-22 01:28:00,21.0,21.0,29.85,NW,315,1.0,8.0,100,0.00,,,0.00,Weather View 32 v70,2013-01-22 06:28:00,
2013-01-22 01:33:00,21.0,21.0,29.86,WNW,292,6.0,8.0,100,0.00,,,0.00,Weather View 32 v70,2013-01-22 06:33:00,
2013-01-22 01:38:00,21.0,21.0,29.86,NW,315,0.0,8.0,100,0.00,,,0.00,Weather View 32 v70,2013-01-22 06:38:00,
2013-01-22 01:43:00,21.0,21.0,29.87,NW,315,4.0,8.0,100,0.00,,,0.00,Weather View 32 v70,2013-01-22 06:43:00,
2013-01-22 01:48:00,21.0,21.0,29.87,NW,315,3.0,8.0,100,0.00,,,0.00,Weather View 32 v70,2013-01-22 06:48:00,
2013-01-22 01:53:00,21.0,21.0,29.86,NNW,337,2.0,8.0,100,0.00,,,0.00,Weather View 32 v70,2013-01-22 06:53:00,
2013-01-22 01:58:00,21.0,21.0,29.86,NW,315,6.0,8.0,100,0.00,,,0.00,Weather View 32 v70,2013-01-22 06:58:00,
2013-01-22 02:03:00,21.0,21.0,29.86,WNW,292,1.0,8.0,100,0.00,,,0.00,Weather View 32 v70,2013-01-22 07:03:00,
2013-01-22 02:08:00,21.0,21.0,29.86,NW,315,3.0,8.0,100,0.00,,,0.00,Weather View 32 v70,2013-01-22 07:08:00,
2013-01-22 02:13:00,21.0,21.0,29.85,NE,45,0.0,8.0,100,0.00,,,0.00,Weather View 32 v70,2013-01-22 07:13:00,
2013-01-22 02:18:00,21.0,21.0,29.85,NNE,22,3.0,8.0,100,0.00,,,0.00,Weather View 32 v70,2013-01-22 07:18:00,
2013-01-22 02:23:00,21.0,21.0,29.85,NNE,22,0.0,8.0,100,0.00,,,0.00,Weather View 32 v70,2013-01-22 07:23:00,
2013-01-22 02:28:00,21.0,21.0,29.85,NNE,22,0.0,8.0,100,0.00,,,0.00,Weather View 32 v70,2013-01-22 07:28:00,
2013-01-22 02:33:00,21.0,20.8,29.85,SE,135,0.0,8.0,99,0.00,,,0.00,Weather View 32 v70,2013-01-22 07:33:00,
2013-01-22 02:38:00,21.0,20.8,29.85,SE,135,0.0,8.0,99,0.00,,,0.00,Weather View 32 v70,2013-01-22 07:38:00,
2013-01-22 02:43:00,21.0,20.5,29.85,SE,135,0.0,8.0,98,0.00,,,0.00,Weather View 32 v70,2013-01-22 07:43:00,
2013-01-22 02:48:00,21.0,20.5,29.85,SE,135,0.0,8.0,98,0.00,,,0.00,Weather View 32 v70,2013-01-22 07:48:00,
2013-01-22 02:53:00,20.0,19.5,29.85,SE,135,0.0,8.0,98,0.00,,,0.00,Weather View 32 v70,2013-01-22 07:53:00,
2013-01-22 02:58:00,20.0,20.0,29.85,NW,315,5.0,8.0,100,0.00,,,0.00,Weather View 32 v70,2013-01-22 07:58:00,
2013-01-22 03:03:00,20.0,20.0,29.85,NW,315,0.0,5.0,100,0.00,,,0.00,Weather View 32 v70,2013-01-22 08:03:00,
2013-01-22 03:08:00,19.0,19.0,29.85,NW,315,2.0,5.0,100,0.00,,,0.00,Weather View 32 v70,2013-01-22 08:08:00,
2013-01-22 03:13:00,19.0,19.0,29.84,NNW,337,3.0,8.0,100,0.00,,,0.00,Weather View 32 v70,2013-01-22 08:13:00,
2013-01-22 03:18:00,19.0,19.0,29.84,NNE,22,3.0,8.0,100,0.00,,,0.00,Weather View 32 v70,2013-01-22 08:18:00,
2013-01-22 03:23:00,19.0,19.0,29.84,NW,315,0.0,8.0,100,0.00,,,0.00,Weather View 32 v70,2013-01-22 08:23:00,
2013-01-22 03:28:00,19.0,19.0,29.84,NNW,337,4.0,8.0,100,0.00,,,0.00,Weather View 32 v70,2013-01-22 08:28:00,
2013-01-22 03:33:00,19.0,19.0,29.84,WNW,292,2.0,8.0,100,0.00,,,0.00,Weather View 32 v70,2013-01-22 08:33:00,
2013-01-22 03:38:00,19.0,19.0,29.84,NNW,337,4.0,8.0,100,0.00,,,0.00,Weather View 32 v70,2013-01-22 08:38:00,
2013-01-22 03:43:00,19.0,19.0,29.84,North,360,5.0,8.0,100,0.00,,,0.00,Weather View 32 v70,2013-01-22 08:43:00,
2013-01-22 03:48:00,19.0,19.0,29.84,NNW,337,4.0,8.0,100,0.00,,,0.00,Weather View 32 v70,2013-01-22 08:48:00,
2013-01-22 03:53:00,20.0,20.0,29.84,West,270,0.0,8.0,100,0.00,,,0.00,Weather View 32 v70,2013-01-22 08:53:00,
2013-01-22 03:58:00,19.0,19.0,29.84,NW,315,5.0,8.0,100,0.00,,,0.00,Weather View 32 v70,2013-01-22 08:58:00,
2013-01-22 04:03:00,20.0,20.0,29.85,NW,315,2.0,8.0,100,0.00,,,0.00,Weather View 32 v70,2013-01-22 09:03:00,
2013-01-22 04:08:00,19.0,19.0,29.85,NW,315,1.0,8.0,100,0.00,,,0.00,Weather View 32 v70,2013-01-22 09:08:00,
2013-01-22 04:13:00,20.0,20.0,29.85,NW,315,3.0,8.0,100,0.00,,,0.00,Weather View 32 v70,2013-01-22 09:13:00,
2013-01-22 04:18:00,19.0,19.0,29.85,NW,315,4.0,8.0,100,0.00,,,0.00,Weather View 32 v70,2013-01-22 09:18:00,
2013-01-22 04:23:00,19.0,19.0,29.85,NW,315,0.0,8.0,100,0.00,,,0.00,Weather View 32 v70,2013-01-22 09:23:00,
2013-01-22 04:28:00,19.0,19.0,29.85,NW,315,0.0,8.0,100,0.00,,,0.00,Weather View 32 v70,2013-01-22 09:28:00,
2013-01-22 04:33:00,19.0,19.0,29.85,NW,315,3.0,8.0,100,0.00,,,0.00,Weather View 32 v70,2013-01-22 09:33:00,
2013-01-22 04:38:00,19.0,19.0,29.85,NW,315,3.0,8.0,100,0.00,,,0.00,Weather View 32 v70,2013-01-22 09:38:00,
2013-01-22 04:43:00,18.0,18.0,29.85,NW,315,3.0,8.0,100,0.00,,,0.00,Weather View 32 v70,2013-01-22 09:43:00,
2013-01-22 04:48:00,18.0,18.0,29.85,NW,315,0.0,8.0,100,0.00,,,0.00,Weather View 32 v70,2013-01-22 09:48:00,
2013-01-22 04:53:00,18.0,18.0,29.85,NW,315,0.0,8.0,100,0.00,,,0.00,Weather View 32 v70,2013-01-22 09:53:00,
2013-01-22 04:58:00,18.0,18.0,29.85,NW,315,0.0,8.0,100,0.00,,,0.00,Weather View 32 v70,2013-01-22 09:58:00,
2013-01-22 05:03:00,18.0,18.0,29.85,NW,315,3.0,8.0,100,0.00,,,0.00,Weather View 32 v70,2013-01-22 10:03:00,
2013-01-22 05:08:00,18.0,18.0,29.85,NW,315,0.0,7.0,100,0.00,,,0.00,Weather View 32 v70,2013-01-22 10:08:00,
2013-01-22 05:13:00,18.0,18.0,29.85,WSW,247,0.0,7.0,100,0.00,,,0.00,Weather View 32 v70,2013-01-22 10:13:00,
2013-01-22 05:18:00,18.0,18.0,29.85,WSW,247,0.0,7.0,100,0.00,,,0.00,Weather View 32 v70,2013-01-22 10:18:00,
2013-01-22 05:23:00,18.0,18.0,29.85,WSW,247,1.0,7.0,100,0.00,,,0.00,Weather View 32 v70,2013-01-22 10:23:00,
2013-01-22 05:28:00,18.0,18.0,29.85,NW,315,0.0,7.0,100,0.00,,,0.00,Weather View 32 v70,2013-01-22 10:28:00,
2013-01-22 05:33:00,18.0,18.0,29.85,NW,315,4.0,7.0,100,0.00,,,0.00,Weather View 32 v70,2013-01-22 10:33:00,
2013-01-22 05:38:00,18.0,18.0,29.85,NW,315,2.0,7.0,100,0.00,,,0.00,Weather View 32 v70,2013-01-22 10:38:00,
2013-01-22 05:43:00,18.0,18.0,29.85,NW,315,2.0,6.0,100,0.00,,,0.00,Weather View 32 v70,2013-01-22 10:43:00,
2013-01-22 05:48:00,18.0,18.0,29.85,NW,315,0.0,6.0,100,0.00,,,0.00,Weather View 32 v70,2013-01-22 10:48:00,
2013-01-22 05:53:00,18.0,18.0,29.85,NW,315,0.0,6.0,100,0.00,,,0.00,Weather View 32 v70,2013-01-22 10:53:00,
2013-01-22 05:58:00,18.0,18.0,29.85,NNW,337,0.0,6.0,100,0.00,,,0.00,Weather View 32 v70,2013-01-22 10:58:00,
2013-01-22 06:03:00,18.0,18.0,29.85,North,360,0.0,6.0,100,0.00,,,0.00,Weather View 32 v70,2013-01-22 11:03:00,
2013-01-22 06:08:00,18.0,18.0,29.85,NNW,337,1.0,7.0,100,0.00,,,0.00,Weather View 32 v70,2013-01-22 11:08:00,
2013-01-22 06:13:00,18.0,18.0,29.86,West,270,0.0,7.0,100,0.00,,,0.00,Weather View 32 v70,2013-01-22 11:13:00,
2013-01-22 06:19:00,18.0,18.0,29.86,West,270,0.0,7.0,100,0.00,,,0.00,Weather View 32 v70,2013-01-22 11:19:00,
2013-01-22 06:24:00,18.0,18.0,29.86,West,270,0.0,7.0,100,0.00,,,0.00,Weather View 32 v70,2013-01-22 11:24:00,
2013-01-22 06:29:00,17.0,17.0,29.86,SE,135,0.0,7.0,100,0.00,,,0.00,Weather View 32 v70,2013-01-22 11:29:00,
2013-01-22 06:34:00,17.0,17.0,29.87,NNW,337,0.0,7.0,100,0.00,,,0.00,Weather View 32 v70,2013-01-22 11:34:00,
2013-01-22 06:39:00,17.0,17.0,29.87,West,270,0.0,7.0,100,0.00,,,0.00,Weather View 32 v70,2013-01-22 11:39:00,
2013-01-22 06:44:00,17.0,17.0,29.87,NW,315,3.0,7.0,100,0.00,,,0.00,Weather View 32 v70,2013-01-22 11:44:00,
2013-01-22 06:49:00,17.0,17.0,29.87,NW,315,0.0,7.0,100,0.00,,,0.00,Weather View 32 v70,2013-01-22 11:49:00,
2013-01-22 06:54:00,17.0,17.0,29.87,West,270,0.0,7.0,100,0.00,,,0.00,Weather View 32 v70,2013-01-22 11:54:00,
2013-01-22 06:59:00,17.0,17.0,29.87,West,270,0.0,7.0,100,0.00,,,0.00,Weather View 32 v70,2013-01-22 11:59:00,
2013-01-22 07:04:00,17.0,17.0,29.87,South,180,3.0,8.0,100,0.00,,,0.00,Weather View 32 v70,2013-01-22 12:04:00,
2013-01-22 07:09:00,17.0,17.0,29.87,SSE,157,3.0,8.0,100,0.00,,,0.00,Weather View 32 v70,2013-01-22 12:09:00,
2013-01-22 07:14:00,17.0,17.0,29.88,SSE,157,0.0,8.0,100,0.00,,,0.00,Weather View 32 v70,2013-01-22 12:14:00,
2013-01-22 07:19:00,16.0,16.0,29.88,NNE,22,0.0,8.0,100,0.00,,,0.00,Weather View 32 v70,2013-01-22 12:19:00,
2013-01-22 07:24:00,17.0,17.0,29.88,East,90,1.0,9.0,100,0.00,,,0.00,Weather View 32 v70,2013-01-22 12:24:00,
2013-01-22 07:29:00,17.0,17.0,29.88,NW,315,3.0,13.0,100,0.00,,,0.00,Weather View 32 v70,2013-01-22 12:29:00,
2013-01-22 07:34:00,17.0,17.0,29.88,South,180,7.0,13.0,100,0.00,,,0.00,Weather View 32 v70,2013-01-22 12:34:00,
2013-01-22 07:39:00,17.0,17.0,29.88,South,180,2.0,13.0,100,0.00,,,0.00,Weather View 32 v70,2013-01-22 12:39:00,
2013-01-22 07:44:00,17.0,17.0,29.89,SE,135,1.0,13.0,100,0.00,,,0.00,Weather View 32 v70,2013-01-22 12:44:00,
2013-01-22 07:49:00,17.0,17.0,29.89,NW,315,5.0,13.0,100,0.00,,,0.00,Weather View 32 v70,2013-01-22 12:49:00,
2013-01-22 07:54:00,18.0,18.0,29.88,SSE,157,1.0,24.0,100,0.00,,,0.00,Weather View 32 v70,2013-01-22 12:54:00,
2013-01-22 07:59:00,18.0,17.8,29.88,SSW,202,1.0,24.0,99,0.00,,,0.00,Weather View 32 v70,2013-01-22 12:59:00,
2013-01-22 08:04:00,18.0,17.1,29.89,SSE,157,4.0,24.0,96,0.00,,,0.00,Weather View 32 v70,2013-01-22 13:04:00,
2013-01-22 08:09:00,18.0,15.8,29.89,WSW,247,2.0,24.0,91,0.00,,,0.00,Weather View 32 v70,2013-01-22 13:09:00,
2013-01-22 08:14:00,19.0,16.3,29.89,NNW,337,3.0,24.0,89,0.00,,,0.00,Weather View 32 v70,2013-01-22 13:14:00,
2013-01-22 08:19:00,19.0,15.0,29.89,WNW,292,17.0,24.0,84,0.00,,,0.00,Weather View 32 v70,2013-01-22 13:19:00,
2013-01-22 08:24:00,20.0,15.1,29.90,West,270,7.0,25.0,81,0.00,,,0.00,Weather View 32 v70,2013-01-22 13:24:00,
2013-01-22 08:29:00,20.0,14.2,29.90,NW,315,13.0,25.0,78,0.00,,,0.00,Weather View 32 v70,2013-01-22 13:29:00,
2013-01-22 08:34:00,20.0,14.2,29.90,WNW,292,8.0,25.0,78,0.00,,,0.00,Weather View 32 v70,2013-01-22 13:34:00,
2013-01-22 08:39:00,20.0,14.2,29.90,WNW,292,6.0,25.0,78,0.00,,,0.00,Weather View 32 v70,2013-01-22 13:39:00,
2013-01-22 08:44:00,20.0,14.0,29.91,NW,315,2.0,25.0,77,0.00,,,0.00,Weather View 32 v70,2013-01-22 13:44:00,
2013-01-22 08:49:00,20.0,13.4,29.91,NW,315,5.0,25.0,75,0.00,,,0.00,Weather View 32 v70,2013-01-22 13:49:00,
2013-01-22 08:54:00,20.0,13.1,29.91,South,180,6.0,25.0,74,0.00,,,0.00,Weather View 32 v70,2013-01-22 13:54:00,
2013-01-22 08:59:00,20.0,12.7,29.91,NNW,337,2.0,25.0,73,0.00,,,0.00,Weather View 32 v70,2013-01-22 13:59:00,
2013-01-22 09:04:00,20.0,12.7,29.92,NW,315,5.0,25.0,73,0.00,,,0.00,Weather View 32 v70,2013-01-22 14:04:00,
2013-01-22 09:09:00,20.0,12.7,29.92,NW,315,3.0,25.0,73,0.00,,,0.00,Weather View 32 v70,2013-01-22 14:09:00,
2013-01-22 09:14:00,21.0,13.1,29.92,NW,315,8.0,25.0,71,0.00,,,0.00,Weather View 32 v70,2013-01-22 14:14:00,
2013-01-22 09:19:00,20.0,12.1,29.92,NW,315,4.0,25.0,71,0.00,,,0.00,Weather View 32 v70,2013-01-22 14:19:00,
2013-01-22 09:24:00,21.0,13.1,29.91,SSE,157,1.0,23.0,71,0.00,,,0.00,Weather View 32 v70,2013-01-22 14:24:00,
2013-01-22 09:29:00,21.0,11.8,29.91,WNW,292,3.0,23.0,67,0.00,,,0.00,Weather View 32 v70,2013-01-22 14:29:00,
2013-01-22 09:34:00,21.0,11.8,29.92,WNW,292,6.0,23.0,67,0.00,,,0.00,Weather View 32 v70,2013-01-22 14:34:00,
2013-01-22 09:39:00,21.0,11.8,29.92,WNW,292,5.0,23.0,67,0.00,,,0.00,Weather View 32 v70,2013-01-22 14:39:00,
2013-01-22 09:44:00,21.0,10.7,29.93,SSW,202,3.0,23.0,64,0.00,,,0.00,Weather View 32 v70,2013-01-22 14:44:00,
2013-01-22 09:49:00,21.0,9.7,29.93,NW,315,5.0,23.0,61,0.00,,,0.00,Weather View 32 v70,2013-01-22 14:49:00,
2013-01-22 09:54:00,21.0,9.7,29.93,NW,315,4.0,23.0,61,0.00,,,0.00,Weather View 32 v70,2013-01-22 14:54:00,
2013-01-22 09:59:00,21.0,10.0,29.93,NW,315,5.0,16.0,62,0.00,,,0.00,Weather View 32 v70,2013-01-22 14:59:00,
2013-01-22 10:04:00,22.0,10.6,29.92,SW,225,3.0,16.0,61,0.00,,,0.00,Weather View 32 v70,2013-01-22 15:04:00,
2013-01-22 10:09:00,22.0,9.9,29.92,NNW,337,1.0,16.0,59,0.00,,,0.00,Weather View 32 v70,2013-01-22 15:09:00,
2013-01-22 10:14:00,22.0,8.3,29.93,NW,315,3.0,16.0,55,0.00,,,0.00,Weather View 32 v70,2013-01-22 15:14:00,
2013-01-22 10:19:00,22.0,8.7,29.93,South,180,6.0,16.0,56,0.00,,,0.00,Weather View 32 v70,2013-01-22 15:19:00,
2013-01-22 10:24:00,22.0,8.7,29.93,West,270,3.0,16.0,56,0.00,,,0.00,Weather View 32 v70,2013-01-22 15:24:00,
2013-01-22 10:29:00,22.0,7.9,29.93,NNE,22,1.0,16.0,54,0.00,,,0.00,Weather View 32 v70,2013-01-22 15:29:00,
2013-01-22 10:34:00,22.0,8.3,29.93,South,180,6.0,16.0,55,0.00,,,0.00,Weather View 32 v70,2013-01-22 15:34:00,
2013-01-22 10:39:00,22.0,7.5,29.93,West,270,4.0,16.0,53,0.00,,,0.00,Weather View 32 v70,2013-01-22 15:39:00,
2013-01-22 10:44:00,22.0,6.6,29.94,SSE,157,3.0,16.0,51,0.00,,,0.00,Weather View 32 v70,2013-01-22 15:44:00,
2013-01-22 10:49:00,22.0,6.6,29.94,NW,315,6.0,17.0,51,0.00,,,0.00,Weather View 32 v70,2013-01-22 15:49:00,
2013-01-22 10:54:00,23.0,7.1,29.93,WNW,292,4.0,17.0,50,0.00,,,0.00,Weather View 32 v70,2013-01-22 15:54:00,
2013-01-22 10:59:00,23.0,7.1,29.93,NW,315,9.0,19.0,50,0.00,,,0.00,Weather View 32 v70,2013-01-22 15:59:00,
2013-01-22 11:04:00,23.0,6.7,29.93,NNW,337,5.0,19.0,49,0.00,,,0.00,Weather View 32 v70,2013-01-22 16:04:00,
2013-01-22 11:09:00,23.0,7.6,29.93,NNW,337,6.0,19.0,51,0.00,,,0.00,Weather View 32 v70,2013-01-22 16:09:00,
2013-01-22 11:14:00,23.0,5.8,29.92,WNW,292,10.0,19.0,47,0.00,,,0.00,Weather View 32 v70,2013-01-22 16:14:00,
2013-01-22 11:20:00,23.0,6.2,29.92,NW,315,7.0,19.0,48,0.00,,,0.00,Weather View 32 v70,2013-01-22 16:20:00,
2013-01-22 11:25:00,23.0,6.2,29.93,North,360,0.0,19.0,48,0.00,,,0.00,Weather View 32 v70,2013-01-22 16:25:00,
2013-01-22 11:30:00,23.0,7.1,29.93,SSE,157,3.0,19.0,50,0.00,,,0.00,Weather View 32 v70,2013-01-22 16:30:00,
2013-01-22 11:35:00,23.0,5.8,29.93,NW,315,5.0,19.0,47,0.00,,,0.00,Weather View 32 v70,2013-01-22 16:35:00,
2013-01-22 11:40:00,23.0,5.8,29.93,NNW,337,4.0,19.0,47,0.00,,,0.00,Weather View 32 v70,2013-01-22 16:40:00,
2013-01-22 11:45:00,22.0,5.8,29.92,NW,315,6.0,19.0,49,0.00,,,0.00,Weather View 32 v70,2013-01-22 16:45:00,
2013-01-22 11:50:00,22.0,6.2,29.92,NW,315,7.0,19.0,50,0.00,,,0.00,Weather View 32 v70,2013-01-22 16:50:00,
2013-01-22 11:55:00,22.0,6.6,29.92,NW,315,11.0,19.0,51,0.00,,,0.00,Weather View 32 v70,2013-01-22 16:55:00,
2013-01-22 12:00:00,22.0,7.5,29.92,NNE,22,1.0,19.0,53,0.00,,,0.00,Weather View 32 v70,2013-01-22 17:00:00,
2013-01-22 12:05:00,22.0,6.2,29.93,NNW,337,2.0,19.0,50,0.00,,,0.00,Weather View 32 v70,2013-01-22 17:05:00,
2013-01-22 12:10:00,23.0,8.0,29.93,WSW,247,2.0,19.0,52,0.00,,,0.00,Weather View 32 v70,2013-01-22 17:10:00,
2013-01-22 12:15:00,23.0,7.6,29.92,NW,315,5.0,19.0,51,0.00,,,0.00,Weather View 32 v70,2013-01-22 17:15:00,
2013-01-22 12:20:00,23.0,7.1,29.92,NNW,337,5.0,19.0,50,0.00,,,0.00,Weather View 32 v70,2013-01-22 17:20:00,
2013-01-22 12:25:00,23.0,6.2,29.93,NW,315,6.0,19.0,48,0.00,,,0.00,Weather View 32 v70,2013-01-22 17:25:00,
2013-01-22 12:30:00,23.0,6.7,29.93,SSW,202,3.0,19.0,49,0.00,,,0.00,Weather View 32 v70,2013-01-22 17:30:00,
2013-01-22 12:35:00,23.0,6.7,29.91,SW,225,0.0,19.0,49,0.00,,,0.00,Weather View 32 v70,2013-01-22 17:35:00,
2013-01-22 12:40:00,24.0,6.7,29.91,WNW,292,1.0,19.0,47,0.00,,,0.00,Weather View 32 v70,2013-01-22 17:40:00,
2013-01-22 12:45:00,24.0,5.7,29.91,NW,315,8.0,19.0,45,0.00,,,0.00,Weather View 32 v70,2013-01-22 17:45:00,
2013-01-22 12:50:00,24.0,5.2,29.91,West,270,2.0,19.0,44,0.00,,,0.00,Weather View 32 v70,2013-01-22 17:50:00,
2013-01-22 12:55:00,24.0,5.7,29.92,WNW,292,5.0,17.0,45,0.00,,,0.00,Weather View 32 v70,2013-01-22 17:55:00,
2013-01-22 13:00:00,24.0,5.7,29.92,NW,315,6.0,17.0,45,0.00,,,0.00,Weather View 32 v70,2013-01-22 18:00:00,
2013-01-22 13:05:00,24.0,6.7,29.92,North,360,1.0,17.0,47,0.00,,,0.00,Weather View 32 v70,2013-01-22 18:05:00,
2013-01-22 13:10:00,23.0,5.8,29.92,NW,315,7.0,17.0,47,0.00,,,0.00,Weather View 32 v70,2013-01-22 18:10:00,
2013-01-22 13:15:00,23.0,5.3,29.92,WNW,292,3.0,17.0,46,0.00,,,0.00,Weather View 32 v70,2013-01-22 18:15:00,
2013-01-22 13:20:00,23.0,4.8,29.92,NNW,337,6.0,17.0,45,0.00,,,0.00,Weather View 32 v70,2013-01-22 18:20:00,
2013-01-22 13:25:00,23.0,5.8,29.93,SSW,202,1.0,17.0,47,0.00,,,0.00,Weather View 32 v70,2013-01-22 18:25:00,
2013-01-22 13:30:00,22.0,5.3,29.93,WNW,292,9.0,15.0,48,0.00,,,0.00,Weather View 32 v70,2013-01-22 18:30:00,
2013-01-22 13:35:00,22.0,5.3,29.93,South,180,4.0,15.0,48,0.00,,,0.00,Weather View 32 v70,2013-01-22 18:35:00,
2013-01-22 13:40:00,22.0,3.9,29.93,NW,315,12.0,17.0,45,0.00,,,0.00,Weather View 32 v70,2013-01-22 18:40:00,
2013-01-22 13:45:00,21.0,3.5,29.93,NW,315,6.0,17.0,46,0.00,,,0.00,Weather View 32 v70,2013-01-22 18:45:00,
2013-01-22 13:50:00,22.0,3.4,29.93,SSE,157,3.0,17.0,44,0.00,,,0.00,Weather View 32 v70,2013-01-22 18:50:00,
2013-01-22 13:55:00,22.0,3.4,29.93,NNW,337,10.0,17.0,44,0.00,,,0.00,Weather View 32 v70,2013-01-22 18:55:00,
2013-01-22 14:00:00,22.0,2.9,29.93,SSW,202,3.0,19.0,43,0.00,,,0.00,Weather View 32 v70,2013-01-22 19:00:00,
2013-01-22 14:05:00,22.0,2.9,29.94,South,180,2.0,19.0,43,0.00,,,0.00,Weather View 32 v70,2013-01-22 19:05:00,
2013-01-22 14:10:00,22.0,3.4,29.94,WNW,292,4.0,19.0,44,0.00,,,0.00,Weather View 32 v70,2013-01-22 19:10:00,
2013-01-22 14:15:00,22.0,3.4,29.94,NW,315,6.0,19.0,44,0.00,,,0.00,Weather View 32 v70,2013-01-22 19:15:00,
2013-01-22 14:20:00,22.0,3.4,29.94,SSE,157,4.0,19.0,44,0.00,,,0.00,Weather View 32 v70,2013-01-22 19:20:00,
2013-01-22 14:25:00,23.0,2.3,29.94,NW,315,10.0,19.0,40,0.00,,,0.00,Weather View 32 v70,2013-01-22 19:25:00,
2013-01-22 14:30:00,23.0,4.3,29.94,NW,315,5.0,19.0,44,0.00,,,0.00,Weather View 32 v70,2013-01-22 19:30:00,
2013-01-22 14:35:00,23.0,2.8,29.95,WNW,292,0.0,19.0,41,0.00,,,0.00,Weather View 32 v70,2013-01-22 19:35:00,
2013-01-22 14:40:00,23.0,2.8,29.95,WNW,292,5.0,19.0,41,0.00,,,0.00,Weather View 32 v70,2013-01-22 19:40:00,
2013-01-22 14:45:00,23.0,2.3,29.95,NNW,337,5.0,19.0,40,0.00,,,0.00,Weather View 32 v70,2013-01-22 19:45:00,
2013-01-22 14:50:00,22.0,1.9,29.95,WNW,292,3.0,19.0,41,0.00,,,0.00,Weather View 32 v70,2013-01-22 19:50:00,
2013-01-22 14:55:00,22.0,2.9,29.96,WNW,292,3.0,29.0,43,0.00,,,0.00,Weather View 32 v70,2013-01-22 19:55:00,
2013-01-22 15:00:00,22.0,3.4,29.96,NW,315,5.0,29.0,44,0.00,,,0.00,Weather View 32 v70,2013-01-22 20:00:00,
2013-01-22 15:05:00,22.0,2.9,29.96,ESE,112,1.0,29.0,43,0.00,,,0.00,Weather View 32 v70,2013-01-22 20:05:00,
2013-01-22 15:10:00,22.0,1.9,29.96,NW,315,3.0,29.0,41,0.00,,,0.00,Weather View 32 v70,2013-01-22 20:10:00,
2013-01-22 15:15:00,23.0,1.2,29.97,SW,225,4.0,29.0,38,0.00,,,0.00,Weather View 32 v70,2013-01-22 20:15:00,
2013-01-22 15:20:00,23.0,1.7,29.97,NNW,337,6.0,29.0,39,0.00,,,0.00,Weather View 32 v70,2013-01-22 20:20:00,
2013-01-22 15:25:00,22.0,0.8,29.97,WNW,292,8.0,29.0,39,0.00,,,0.00,Weather View 32 v70,2013-01-22 20:25:00,
2013-01-22 15:30:00,22.0,1.9,29.97,South,180,0.0,29.0,41,0.00,,,0.00,Weather View 32 v70,2013-01-22 20:30:00,
2013-01-22 15:35:00,22.0,1.4,29.98,NW,315,3.0,29.0,40,0.00,,,0.00,Weather View 32 v70,2013-01-22 20:35:00,
2013-01-22 15:40:00,22.0,1.4,29.98,SSE,157,4.0,29.0,40,0.00,,,0.00,Weather View 32 v70,2013-01-22 20:40:00,
2013-01-22 15:45:00,22.0,0.8,29.98,SSW,202,4.0,29.0,39,0.00,,,0.00,Weather View 32 v70,2013-01-22 20:45:00,
2013-01-22 15:50:00,22.0,0.8,29.98,SSE,157,5.0,29.0,39,0.00,,,0.00,Weather View 32 v70,2013-01-22 20:50:00,
2013-01-22 15:56:00,22.0,-0.3,29.99,NNW,337,7.0,29.0,37,0.00,,,0.00,Weather View 32 v70,2013-01-22 20:56:00,
2013-01-22 16:01:00,21.0,-1.2,29.99,WSW,247,3.0,14.0,37,0.00,,,0.00,Weather View 32 v70,2013-01-22 21:01:00,
2013-01-22 16:06:00,21.0,0.5,29.99,North,360,2.0,14.0,40,0.00,,,0.00,Weather View 32 v70,2013-01-22 21:06:00,
2013-01-22 16:11:00,20.0,0.6,29.99,NNE,22,0.0,14.0,42,0.00,,,0.00,Weather View 32 v70,2013-01-22 21:11:00,
2013-01-22 16:16:00,20.0,0.1,30.00,NW,315,7.0,14.0,41,0.00,,,0.00,Weather View 32 v70,2013-01-22 21:16:00,
2013-01-22 16:21:00,20.0,0.1,30.00,SSW,202,3.0,14.0,41,0.00,,,0.00,Weather View 32 v70,2013-01-22 21:21:00,
2013-01-22 16:26:00,20.0,1.6,30.01,WSW,247,0.0,14.0,44,0.00,,,0.00,Weather View 32 v70,2013-01-22 21:26:00,
2013-01-22 16:31:00,20.0,1.1,30.01,WSW,247,2.0,16.0,43,0.00,,,0.00,Weather View 32 v70,2013-01-22 21:31:00,
2013-01-22 16:32:00,20.0,1.1,30.01,ENE,67,1.0,16.0,43,0.00,,,0.00,Weather View 32 v70,2013-01-22 21:32:00,
2013-01-22 16:37:00,19.0,0.2,30.01,WNW,292,0.0,16.0,43,0.00,,,0.00,Weather View 32 v70,2013-01-22 21:37:00,
2013-01-22 16:42:00,19.0,-0.3,30.01,WNW,292,5.0,16.0,42,0.00,,,0.00,Weather View 32 v70,2013-01-22 21:42:00,
2013-01-22 16:47:00,19.0,1.2,30.01,East,90,1.0,16.0,45,0.00,,,0.00,Weather View 32 v70,2013-01-22 21:47:00,
2013-01-22 16:52:00,19.0,0.2,30.01,NW,315,3.0,16.0,43,0.00,,,0.00,Weather View 32 v70,2013-01-22 21:52:00,
2013-01-22 16:57:00,19.0,0.7,30.01,WNW,292,11.0,16.0,44,0.00,,,0.00,Weather View 32 v70,2013-01-22 21:57:00,
2013-01-22 17:02:00,19.0,1.6,30.01,SE,135,5.0,16.0,46,0.00,,,0.00,Weather View 32 v70,2013-01-22 22:02:00,
2013-01-22 17:07:00,18.0,0.7,30.02,NW,315,2.0,16.0,46,0.00,,,0.00,Weather View 32 v70,2013-01-22 22:07:00,
2013-01-22 17:12:00,18.0,1.6,30.02,NW,315,3.0,16.0,48,0.00,,,0.00,Weather View 32 v70,2013-01-22 22:12:00,
2013-01-22 17:17:00,18.0,2.1,30.03,SSW,202,3.0,16.0,49,0.00,,,0.00,Weather View 32 v70,2013-01-22 22:17:00,
2013-01-22 17:22:00,18.0,1.6,30.03,NW,315,3.0,16.0,48,0.00,,,0.00,Weather View 32 v70,2013-01-22 22:22:00,
2013-01-22 17:27:00,18.0,1.2,30.04,SW,225,0.0,16.0,47,0.00,,,0.00,Weather View 32 v70,2013-01-22 22:27:00,
2013-01-22 17:32:00,18.0,0.7,30.04,NW,315,6.0,17.0,46,0.00,,,0.00,Weather View 32 v70,2013-01-22 22:32:00,
2013-01-22 17:37:00,18.0,-0.7,30.05,NW,315,4.0,24.0,43,0.00,,,0.00,Weather View 32 v70,2013-01-22 22:37:00,
2013-01-22 17:42:00,18.0,0.7,30.05,SW,225,1.0,24.0,46,0.00,,,0.00,Weather View 32 v70,2013-01-22 22:42:00,
2013-01-22 17:47:00,17.0,0.2,30.05,NW,315,9.0,24.0,47,0.00,,,0.00,Weather View 32 v70,2013-01-22 22:47:00,
2013-01-22 17:52:00,17.0,0.2,30.06,SSE,157,10.0,24.0,47,0.00,,,0.00,Weather View 32 v70,2013-01-22 22:52:00,
2013-01-22 17:57:00,17.0,0.7,30.06,WSW,247,5.0,24.0,48,0.00,,,0.00,Weather View 32 v70,2013-01-22 22:57:00,
2013-01-22 18:02:00,17.0,1.1,30.06,ESE,112,0.0,24.0,49,0.00,,,0.00,Weather View 32 v70,2013-01-22 23:02:00,
2013-01-22 18:07:00,17.0,1.1,30.06,NW,315,8.0,24.0,49,0.00,,,0.00,Weather View 32 v70,2013-01-22 23:07:00,
2013-01-22 18:12:00,17.0,2.0,30.07,South,180,2.0,24.0,51,0.00,,,0.00,Weather View 32 v70,2013-01-22 23:12:00,
2013-01-22 18:17:00,17.0,1.6,30.07,NW,315,5.0,24.0,50,0.00,,,0.00,Weather View 32 v70,2013-01-22 23:17:00,
2013-01-22 18:23:00,17.0,2.4,30.07,WNW,292,4.0,24.0,52,0.00,,,0.00,Weather View 32 v70,2013-01-22 23:23:00,
2013-01-22 18:28:00,17.0,3.2,30.07,SE,135,2.0,24.0,54,0.00,,,0.00,Weather View 32 v70,2013-01-22 23:28:00,
2013-01-22 18:33:00,16.0,2.7,30.08,NW,315,1.0,24.0,55,0.00,,,0.00,Weather View 32 v70,2013-01-22 23:33:00,
2013-01-22 18:38:00,16.0,3.5,30.08,WNW,292,4.0,19.0,57,0.00,,,0.00,Weather View 32 v70,2013-01-22 23:38:00,
2013-01-22 18:43:00,16.0,3.5,30.09,SE,135,1.0,19.0,57,0.00,,,0.00,Weather View 32 v70,2013-01-22 23:43:00,
2013-01-22 18:48:00,16.0,3.8,30.09,NW,315,5.0,19.0,58,0.00,,,0.00,Weather View 32 v70,2013-01-22 23:48:00,
2013-01-22 18:53:00,16.0,3.8,30.09,North,360,0.0,19.0,58,0.00,,,0.00,Weather View 32 v70,2013-01-22 23:53:00,
2013-01-22 18:58:00,15.0,2.9,30.09,North,360,0.0,19.0,58,0.00,,,0.00,Weather View 32 v70,2013-01-22 23:58:00,
2013-01-22 19:03:00,16.0,3.8,30.10,SSW,202,2.0,14.0,58,0.00,,,0.00,Weather View 32 v70,2013-01-23 00:03:00,
2013-01-22 19:08:00,15.0,2.9,30.10,NW,315,4.0,14.0,58,0.00,,,0.00,Weather View 32 v70,2013-01-23 00:08:00,
2013-01-22 19:13:00,15.0,2.9,30.10,NW,315,5.0,14.0,58,0.00,,,0.00,Weather View 32 v70,2013-01-23 00:13:00,
2013-01-22 19:18:00,15.0,2.9,30.10,WNW,292,3.0,14.0,58,0.00,,,0.00,Weather View 32 v70,2013-01-23 00:18:00,
2013-01-22 19:23:00,15.0,2.1,30.11,NW,315,4.0,14.0,56,0.00,,,0.00,Weather View 32 v70,2013-01-23 00:23:00,
2013-01-22 19:28:00,15.0,2.1,30.11,WNW,292,2.0,14.0,56,0.00,,,0.00,Weather View 32 v70,2013-01-23 00:28:00,
2013-01-22 19:33:00,15.0,3.3,30.11,NNW,337,4.0,14.0,59,0.00,,,0.00,Weather View 32 v70,2013-01-23 00:33:00,
2013-01-22 19:38:00,15.0,4.3,30.11,NW,315,4.0,14.0,62,0.00,,,0.00,Weather View 32 v70,2013-01-23 00:38:00,
2013-01-22 19:43:00,15.0,4.3,30.11,WNW,292,4.0,14.0,62,0.00,,,0.00,Weather View 32 v70,2013-01-23 00:43:00,
2013-01-22 19:48:00,15.0,3.6,30.11,NW,315,5.0,14.0,60,0.00,,,0.00,Weather View 32 v70,2013-01-23 00:48:00,
2013-01-22 19:53:00,15.0,3.6,30.11,NW,315,5.0,14.0,60,0.00,,,0.00,Weather View 32 v70,2013-01-23 00:53:00,
2013-01-22 19:58:00,15.0,3.6,30.11,NNW,337,2.0,14.0,60,0.00,,,0.00,Weather View 32 v70,2013-01-23 00:58:00,
2013-01-22 20:03:00,15.0,3.3,30.11,NW,315,6.0,14.0,59,0.00,,,0.00,Weather View 32 v70,2013-01-23 01:03:00,
2013-01-22 20:08:00,15.0,3.6,30.11,WNW,292,0.0,14.0,60,0.00,,,0.00,Weather View 32 v70,2013-01-23 01:08:00,
2013-01-22 20:13:00,15.0,3.6,30.11,WNW,292,2.0,14.0,60,0.00,,,0.00,Weather View 32 v70,2013-01-23 01:13:00,
2013-01-22 20:18:00,15.0,4.3,30.11,West,270,2.0,14.0,62,0.00,,,0.00,Weather View 32 v70,2013-01-23 01:18:00,
2013-01-22 20:23:00,15.0,4.0,30.11,WNW,292,0.0,20.0,61,0.00,,,0.00,Weather View 32 v70,2013-01-23 01:23:00,
2013-01-22 20:28:00,15.0,4.7,30.11,WNW,292,6.0,20.0,63,0.00,,,0.00,Weather View 32 v70,2013-01-23 01:28:00,
2013-01-22 20:33:00,15.0,5.0,30.11,NW,315,3.0,20.0,64,0.00,,,0.00,Weather View 32 v70,2013-01-23 01:33:00,
2013-01-22 20:38:00,14.0,4.1,30.11,ENE,67,0.0,20.0,64,0.00,,,0.00,Weather View 32 v70,2013-01-23 01:38:00,
2013-01-22 20:43:00,14.0,4.1,30.11,WNW,292,3.0,20.0,64,0.00,,,0.00,Weather View 32 v70,2013-01-23 01:43:00,
2013-01-22 20:48:00,14.0,4.4,30.11,SSW,202,4.0,20.0,65,0.00,,,0.00,Weather View 32 v70,2013-01-23 01:48:00,
2013-01-22 20:53:00,14.0,4.4,30.11,WNW,292,2.0,20.0,65,0.00,,,0.00,Weather View 32 v70,2013-01-23 01:53:00,
2013-01-22 20:58:00,14.0,4.7,30.11,WNW,292,3.0,20.0,66,0.00,,,0.00,Weather View 32 v70,2013-01-23 01:58:00,
2013-01-22 21:03:00,14.0,4.7,30.12,WNW,292,4.0,20.0,66,0.00,,,0.00,Weather View 32 v70,2013-01-23 02:03:00,
2013-01-22 21:08:00,14.0,4.7,30.12,WNW,292,1.0,20.0,66,0.00,,,0.00,Weather View 32 v70,2013-01-23 02:08:00,
2013-01-22 21:13:00,14.0,5.1,30.12,West,270,0.0,20.0,67,0.00,,,0.00,Weather View 32 v70,2013-01-23 02:13:00,
2013-01-22 21:18:00,14.0,5.4,30.12,WNW,292,2.0,20.0,68,0.00,,,0.00,Weather View 32 v70,2013-01-23 02:18:00,
2013-01-22 21:23:00,14.0,5.4,30.12,NNW,337,5.0,16.0,68,0.00,,,0.00,Weather View 32 v70,2013-01-23 02:23:00,
2013-01-22 21:28:00,13.0,4.4,30.12,WNW,292,3.0,16.0,68,0.00,,,0.00,Weather View 32 v70,2013-01-23 02:28:00,
2013-01-22 21:33:00,13.0,4.4,30.13,WSW,247,3.0,16.0,68,0.00,,,0.00,Weather View 32 v70,2013-01-23 02:33:00,
2013-01-22 21:38:00,13.0,4.4,30.13,NW,315,6.0,16.0,68,0.00,,,0.00,Weather View 32 v70,2013-01-23 02:38:00,
2013-01-22 21:43:00,13.0,4.4,30.13,NW,315,3.0,16.0,68,0.00,,,0.00,Weather View 32 v70,2013-01-23 02:43:00,
2013-01-22 21:48:00,13.0,4.4,30.13,NW,315,3.0,16.0,68,0.00,,,0.00,Weather View 32 v70,2013-01-23 02:48:00,
2013-01-22 21:53:00,13.0,4.4,30.13,WNW,292,5.0,16.0,68,0.00,,,0.00,Weather View 32 v70,2013-01-23 02:53:00,
2013-01-22 21:58:00,13.0,4.4,30.13,NW,315,0.0,16.0,68,0.00,,,0.00,Weather View 32 v70,2013-01-23 02:58:00,
2013-01-22 22:03:00,13.0,4.8,30.14,NW,315,0.0,16.0,69,0.00,,,0.00,Weather View 32 v70,2013-01-23 03:03:00,
2013-01-22 22:08:00,13.0,5.1,30.14,NW,315,0.0,15.0,70,0.00,,,0.00,Weather View 32 v70,2013-01-23 03:08:00,
2013-01-22 22:13:00,13.0,4.4,30.14,North,360,1.0,15.0,68,0.00,,,0.00,Weather View 32 v70,2013-01-23 03:13:00,
2013-01-22 22:18:00,12.0,4.1,30.14,NW,315,4.0,15.0,70,0.00,,,0.00,Weather View 32 v70,2013-01-23 03:18:00,
2013-01-22 22:23:00,13.0,4.1,30.14,WSW,247,0.0,15.0,67,0.00,,,0.00,Weather View 32 v70,2013-01-23 03:23:00,
2013-01-22 22:28:00,12.0,3.2,30.14,NW,315,5.0,13.0,67,0.00,,,0.00,Weather View 32 v70,2013-01-23 03:28:00,
2013-01-22 22:33:00,13.0,3.5,30.15,NW,315,6.0,13.0,65,0.00,,,0.00,Weather View 32 v70,2013-01-23 03:33:00,
2013-01-22 22:38:00,13.0,4.1,30.15,SSW,202,0.0,13.0,67,0.00,,,0.00,Weather View 32 v70,2013-01-23 03:38:00,
2013-01-22 22:43:00,12.0,3.5,30.15,NW,315,6.0,13.0,68,0.00,,,0.00,Weather View 32 v70,2013-01-23 03:43:00,
2013-01-22 22:48:00,12.0,4.1,30.15,South,180,0.0,13.0,70,0.00,,,0.00,Weather View 32 v70,2013-01-23 03:48:00,
2013-01-22 22:53:00,12.0,3.8,30.15,NW,315,0.0,13.0,69,0.00,,,0.00,Weather View 32 v70,2013-01-23 03:53:00,
2013-01-22 22:58:00,12.0,3.5,30.15,NW,315,9.0,13.0,68,0.00,,,0.00,Weather View 32 v70,2013-01-23 03:58:00,
2013-01-22 23:03:00,12.0,1.8,30.16,NW,315,8.0,16.0,63,0.00,,,0.00,Weather View 32 v70,2013-01-23 04:03:00,
2013-01-22 23:08:00,12.0,2.2,30.16,WNW,292,0.0,16.0,64,0.00,,,0.00,Weather View 32 v70,2013-01-23 04:08:00,
2013-01-22 23:13:00,12.0,2.5,30.16,NW,315,0.0,16.0,65,0.00,,,0.00,Weather View 32 v70,2013-01-23 04:13:00,
2013-01-22 23:19:00,12.0,2.2,30.16,NW,315,4.0,16.0,64,0.00,,,0.00,Weather View 32 v70,2013-01-23 04:19:00,
2013-01-22 23:24:00,12.0,1.5,30.15,NW,315,5.0,16.0,62,0.00,,,0.00,Weather View 32 v70,2013-01-23 04:24:00,
2013-01-22 23:29:00,12.0,1.8,30.15,NNW,337,0.0,16.0,63,0.00,,,0.00,Weather View 32 v70,2013-01-23 04:29:00,
2013-01-22 23:34:00,11.0,0.9,30.15,NW,315,5.0,16.0,63,0.00,,,0.00,Weather View 32 v70,2013-01-23 04:34:00,
2013-01-22 23:39:00,11.0,1.2,30.15,West,270,0.0,16.0,64,0.00,,,0.00,Weather View 32 v70,2013-01-23 04:39:00,
2013-01-22 23:44:00,11.0,1.5,30.15,WNW,292,0.0,16.0,65,0.00,,,0.00,Weather View 32 v70,2013-01-23 04:44:00,
2013-01-22 23:49:00,11.0,2.5,30.15,WNW,292,0.0,16.0,68,0.00,,,0.00,Weather View 32 v70,2013-01-23 04:49:00,
2013-01-22 23:54:00,11.0,4.6,30.15,South,180,3.0,16.0,75,0.00,,,0.00,Weather View 32 v70,2013-01-23 04:54:00,
2013-01-22 23:59:00,11.0,5.2,30.15,East,90,0.0,16.0,77,0.00,,,0.00,Weather View 32 v70,2013-01-23 04:59:00,